�������l�o���
Date,Time,MP-1(��Sv/h),MP-2(��Sv/h),MP-3(��Sv/h),MP-4(��Sv/h),MP-5(��Sv/h),MP-6(��Sv/h),MP-7(��Sv/h),MP-8(��Sv/h),����,����(m/s),���J
2021/11/04,00:00,0.591,0.886,0.563,1.083,0.762,0.359,0.624,0.585,��,6.9,��
2021/11/04,00:10,0.592,0.888,0.562,1.083,0.763,0.358,0.624,0.585,��,8.1,��
2021/11/04,00:20,0.591,0.888,0.563,1.085,0.763,0.358,0.626,0.584,��,8.5,��
2021/11/04,00:30,0.590,0.888,0.563,1.082,0.763,0.358,0.625,0.584,��,8.4,��
2021/11/04,00:40,0.591,0.889,0.564,1.084,0.762,0.358,0.626,0.584,��,7.1,��
2021/11/04,00:50,0.591,0.888,0.563,1.087,0.762,0.360,0.627,0.584,���k��,7.4,��
2021/11/04,01:00,0.590,0.890,0.563,1.085,0.763,0.359,0.625,0.584,���k��,6.6,��
2021/11/04,01:10,0.592,0.888,0.563,1.083,0.762,0.358,0.624,0.585,���k��,6.0,��
2021/11/04,01:20,0.591,0.886,0.561,1.085,0.763,0.359,0.624,0.585,���k��,7.2,��
2021/11/04,01:30,0.591,0.889,0.563,1.085,0.763,0.359,0.626,0.585,���k��,7.0,��
2021/11/04,01:40,0.590,0.889,0.564,1.086,0.760,0.358,0.625,0.584,���k��,7.8,��
2021/11/04,01:50,0.593,0.889,0.564,1.088,0.763,0.358,0.625,0.585,���k��,7.0,��
2021/11/04,02:00,0.590,0.888,0.563,1.083,0.763,0.360,0.627,0.584,���k��,6.3,��
2021/11/04,02:10,0.591,0.888,0.563,1.086,0.760,0.358,0.625,0.584,���k��,5.2,��
2021/11/04,02:20,0.592,0.887,0.562,1.084,0.763,0.358,0.627,0.587,���k��,6.2,��
2021/11/04,02:30,0.591,0.888,0.564,1.088,0.763,0.358,0.625,0.584,���k��,5.6,��
2021/11/04,02:40,0.593,0.888,0.563,1.085,0.763,0.359,0.625,0.584,��,6.0,��
2021/11/04,02:50,0.591,0.887,0.563,1.087,0.763,0.358,0.625,0.585,��,6.6,��
2021/11/04,03:00,0.592,0.887,0.565,1.087,0.762,0.359,0.626,0.585,��,5.3,��
2021/11/04,03:10,0.592,0.888,0.562,1.084,0.763,0.358,0.625,0.585,��,5.5,��
2021/11/04,03:20,0.591,0.888,0.563,1.087,0.762,0.358,0.626,0.585,��,6.7,��
2021/11/04,03:30,0.591,0.888,0.563,1.087,0.762,0.359,0.625,0.584,���k��,6.4,��
2021/11/04,03:40,0.592,0.888,0.564,1.086,0.762,0.359,0.625,0.586,��,5.0,��
2021/11/04,03:50,0.592,0.887,0.563,1.087,0.762,0.360,0.625,0.585,��,3.8,��
2021/11/04,04:00,0.591,0.887,0.564,1.085,0.763,0.358,0.625,0.587,���k��,5.3,��
2021/11/04,04:10,0.591,0.888,0.563,1.085,0.763,0.360,0.627,0.585,��,5.3,��
2021/11/04,04:20,0.590,0.889,0.562,1.087,0.761,0.359,0.627,0.585,��,5.7,��
2021/11/04,04:30,0.591,0.887,0.563,1.085,0.763,0.359,0.627,0.585,��,4.6,��
2021/11/04,04:40,0.591,0.889,0.563,1.085,0.763,0.359,0.626,0.584,���k��,5.7,��
2021/11/04,04:50,0.591,0.888,0.563,1.087,0.764,0.359,0.628,0.585,���k��,4.6,��
2021/11/04,05:00,0.592,0.887,0.562,1.086,0.763,0.358,0.624,0.585,�k��,3.1,��
2021/11/04,05:10,0.592,0.888,0.562,1.086,0.762,0.359,0.627,0.586,���k��,5.5,��
2021/11/04,05:20,0.591,0.891,0.564,1.085,0.763,0.358,0.626,0.587,�k��,6.4,��
2021/11/04,05:30,0.592,0.888,0.563,1.085,0.763,0.357,0.625,0.586,���k��,7.1,��
2021/11/04,05:40,0.591,0.888,0.565,1.086,0.762,0.359,0.625,0.586,���k��,7.1,��
2021/11/04,05:50,0.590,0.888,0.561,1.088,0.763,0.358,0.626,0.585,��,6.5,��
2021/11/04,06:00,0.590,0.889,0.563,1.084,0.762,0.359,0.626,0.584,��,6.2,��
2021/11/04,06:10,0.590,0.885,0.562,1.088,0.763,0.357,0.625,0.584,���k��,4.4,��
2021/11/04,06:20,0.590,0.886,0.563,1.086,0.762,0.358,0.626,0.586,���k��,3.8,��
2021/11/04,06:30,0.591,0.886,0.563,1.086,0.761,0.357,0.625,0.584,���k��,3.2,��
2021/11/04,06:40,0.590,0.889,0.561,1.087,0.764,0.358,0.626,0.585,�k��,3.3,��
2021/11/04,06:50,0.591,0.888,0.564,1.086,0.761,0.358,0.626,0.585,�k��,5.7,��
2021/11/04,07:00,0.590,0.888,0.563,1.086,0.763,0.358,0.625,0.585,�k��,5.0,��
2021/11/04,07:10,0.591,0.887,0.563,1.086,0.762,0.357,0.627,0.587,���k��,4.9,��
2021/11/04,07:20,0.589,0.888,0.563,1.086,0.763,0.358,0.627,0.586,���k��,4.8,��
2021/11/04,07:30,0.591,0.887,0.562,1.087,0.763,0.359,0.626,0.584,���k��,6.1,��
2021/11/04,07:40,0.591,0.888,0.563,1.083,0.761,0.359,0.627,0.585,���k��,5.9,��
2021/11/04,07:50,0.591,0.887,0.563,1.085,0.763,0.357,0.625,0.585,���k��,5.5,��
2021/11/04,08:00,0.591,0.886,0.563,1.086,0.764,0.358,0.626,0.584,���k��,6.2,��
2021/11/04,08:10,0.592,0.887,0.563,1.086,0.762,0.358,0.625,0.585,���k��,6.0,��
2021/11/04,08:20,0.592,0.885,0.562,1.086,0.763,0.359,0.626,0.585,�k��,5.4,��
2021/11/04,08:30,0.592,0.887,0.562,1.088,0.763,0.359,0.627,0.586,�k��,4.5,��
2021/11/04,08:40,0.592,0.885,0.562,1.085,0.762,0.358,0.624,0.585,�k��,4.6,��
2021/11/04,08:50,0.592,0.886,0.562,1.087,0.762,0.357,0.624,0.586,�k��,4.2,��
2021/11/04,09:00,0.593,0.886,0.563,1.085,0.763,0.357,0.625,0.586,�k��,4.5,��
2021/11/04,09:10,0.591,0.884,0.565,1.085,0.764,0.360,0.625,0.587,�k��,4.6,��
2021/11/04,09:20,0.590,0.885,0.566,1.087,0.764,0.359,0.626,0.586,�k��,5.3,��
2021/11/04,09:30,0.592,0.885,0.564,1.090,0.763,0.359,0.625,0.588,�k�k��,4.4,��
2021/11/04,09:40,0.590,0.883,0.563,1.085,0.763,0.358,0.625,0.587,�k,4.3,��
2021/11/04,09:50,0.591,0.884,0.563,1.087,0.762,0.357,0.624,0.587,�k�k��,7.0,��
2021/11/04,10:00,0.593,0.886,0.564,1.088,0.762,0.359,0.626,0.586,�k�k��,5.4,��
2021/11/04,10:10,0.592,0.885,0.564,1.086,0.763,0.357,0.626,0.587,�k,5.3,��
2021/11/04,10:20,0.592,0.885,0.563,1.087,0.762,0.357,0.624,0.587,�k�k��,4.1,��
2021/11/04,10:30,0.591,0.885,0.562,1.087,0.761,0.356,0.624,0.585,�k,2.8,��
2021/11/04,10:40,0.591,0.883,0.563,1.087,0.759,0.358,0.625,0.587,�k�k��,4.2,��
2021/11/04,10:50,0.593,0.886,0.563,1.086,0.761,0.357,0.625,0.588,�k�k��,5.8,��
2021/11/04,11:00,0.593,0.885,0.562,1.085,0.761,0.357,0.626,0.586,�k�k��,5.0,��
2021/11/04,11:10,0.592,0.885,0.562,1.089,0.762,-,0.625,0.585,�k��,5.1,��
2021/11/04,11:20,0.592,0.885,0.563,1.085,0.764,-,0.625,0.587,�k��,5.0,��
2021/11/04,11:30,0.593,0.886,0.563,1.087,0.763,-,0.625,0.586,�k��,5.4,��
2021/11/04,11:40,0.592,0.887,0.563,1.085,0.765,-,0.625,0.588,�k��,5.2,��
2021/11/04,11:50,0.592,0.888,0.564,1.086,0.765,-,0.624,0.584,�k��,5.6,��
2021/11/04,12:00,0.590,0.888,0.563,1.085,0.764,-,0.625,0.587,�k��,5.3,��
2021/11/04,12:10,0.593,0.887,0.562,1.090,0.764,-,0.622,0.586,�k��,5.0,��
2021/11/04,12:20,0.592,0.889,0.563,1.088,0.763,-,0.624,0.583,�k��,5.5,��
2021/11/04,12:30,0.593,0.886,0.562,1.087,0.763,-,0.626,0.583,�k��,4.4,��
2021/11/04,12:40,0.593,0.890,0.562,1.086,0.763,-,0.625,0.584,�k��,3.2,��
2021/11/04,12:50,0.592,0.885,0.562,1.086,0.765,-,0.625,0.585,�k��,3.4,��
2021/11/04,13:00,0.592,0.886,0.562,1.089,0.763,-,0.626,0.584,�k��,3.6,��
2021/11/04,13:10,0.592,0.887,0.564,1.089,0.763,-,0.624,0.583,�k��,3.8,��
2021/11/04,13:20,0.591,0.885,0.561,1.087,0.764,-,0.626,0.584,�k�k��,3.5,��
2021/11/04,13:30,0.594,0.888,0.562,1.088,0.765,-,0.625,0.585,�k�k��,3.7,��
2021/11/04,13:40,0.593,0.886,0.563,1.088,0.765,-,0.624,0.582,�k�k��,3.4,��
2021/11/04,13:50,0.593,0.887,0.563,1.086,0.765,-,0.625,0.583,�k��,3.2,��
2021/11/04,14:00,0.592,0.886,0.563,1.087,0.764,-,0.625,0.584,�k��,3.1,��
2021/11/04,14:10,0.592,0.889,0.563,1.088,0.764,0.361,0.625,0.583,�k�k��,3.6,��
2021/11/04,14:20,0.591,0.889,0.562,1.089,0.762,0.359,0.626,0.585,�k�k��,3.8,��
2021/11/04,14:30,0.593,0.886,0.563,1.089,0.764,0.360,0.625,0.583,�k�k��,2.8,��
2021/11/04,14:40,0.591,0.889,0.563,1.089,0.766,0.359,0.626,0.583,�k��,2.3,��
2021/11/04,14:50,0.592,0.888,0.562,1.088,0.763,0.360,0.625,0.585,�k��,2.5,��
2021/11/04,15:00,0.591,0.888,0.563,1.089,0.764,0.361,0.626,0.585,�k��,1.4,��
2021/11/04,15:10,0.592,0.889,0.562,1.090,0.765,0.361,0.624,0.583,�k��,1.5,��
2021/11/04,15:20,0.591,0.887,0.562,1.091,0.763,0.361,0.624,0.585,���쓌,0.9,��
2021/11/04,15:30,0.592,0.888,0.563,1.087,0.764,0.360,0.624,0.584,���k��,1.2,��
2021/11/04,15:40,0.592,0.892,0.563,1.090,0.765,0.361,0.625,0.585,�k�k��,0.8,��
2021/11/04,15:50,0.591,0.892,0.564,1.088,0.764,0.361,0.626,0.586,�k�k��,0.6,��
2021/11/04,16:00,0.592,0.890,0.565,1.086,0.767,0.361,0.625,0.587,-,CALM,��
2021/11/04,16:10,0.592,0.891,0.565,1.087,0.767,0.361,0.626,0.586,-,CALM,��
2021/11/04,16:20,0.595,0.892,0.563,1.089,0.767,0.361,0.625,0.588,-,CALM,��
2021/11/04,16:30,0.593,0.892,0.564,1.088,0.767,0.361,0.626,0.586,���k��,0.9,��
2021/11/04,16:40,0.594,0.892,0.563,1.087,0.767,0.361,0.626,0.585,���k��,0.8,��
2021/11/04,16:50,0.592,0.892,0.564,1.089,0.766,0.361,0.625,0.587,���쐼,0.8,��
2021/11/04,17:00,0.593,0.891,0.565,1.088,0.765,0.361,0.626,0.586,��,1.1,��
2021/11/04,17:10,0.594,0.890,0.563,1.088,0.765,0.360,0.626,0.586,���k��,1.5,��
2021/11/04,17:20,0.592,0.891,0.564,1.089,0.768,0.359,0.626,0.587,���k��,2.3,��
2021/11/04,17:30,0.594,0.892,0.565,1.090,0.767,0.359,0.625,0.586,���k��,2.6,��
2021/11/04,17:40,0.593,0.890,0.564,1.089,0.767,0.358,0.626,0.587,�k�k��,2.8,��
2021/11/04,17:50,0.593,0.891,0.564,1.087,0.767,0.359,0.625,0.588,�k��,4.0,��
2021/11/04,18:00,0.593,0.890,0.563,1.089,0.765,0.360,0.626,0.586,�k��,4.1,��
2021/11/04,18:10,0.594,0.891,0.564,1.087,0.767,0.359,0.626,0.586,�k��,3.6,��
2021/11/04,18:20,0.594,0.893,0.563,1.087,0.766,0.360,0.625,0.587,�k��,5.1,��
2021/11/04,18:30,0.592,0.893,0.563,1.088,0.766,0.357,0.625,0.587,�k��,4.4,��
2021/11/04,18:40,0.592,0.889,0.563,1.089,0.765,0.359,0.625,0.586,�k��,4.7,��
2021/11/04,18:50,0.593,0.892,0.563,1.088,0.765,0.358,0.624,0.585,�k�k��,5.6,��
2021/11/04,19:00,0.593,0.890,0.565,1.089,0.766,0.359,0.625,0.584,�k��,6.7,��
2021/11/04,19:10,0.593,0.891,0.564,1.087,0.766,0.359,0.626,0.586,�k��,6.3,��
2021/11/04,19:20,0.592,0.892,0.563,1.088,0.767,0.360,0.626,0.586,�k��,5.9,��
2021/11/04,19:30,0.594,0.891,0.565,1.087,0.766,0.359,0.626,0.587,�k��,6.6,��
2021/11/04,19:40,0.594,0.891,0.565,1.088,0.767,0.359,0.622,0.585,�k��,8.0,��
2021/11/04,19:50,0.594,0.890,0.565,1.089,0.766,0.359,0.625,0.586,�k��,7.4,��
2021/11/04,20:00,0.592,0.891,0.565,1.089,0.766,0.358,0.624,0.587,�k��,7.2,��
2021/11/04,20:10,0.593,0.891,0.563,1.089,0.767,0.358,0.623,0.586,�k��,7.3,��
2021/11/04,20:20,0.593,0.891,0.564,1.087,0.766,0.360,0.624,0.585,�k��,5.9,��
2021/11/04,20:30,0.592,0.892,0.565,1.089,0.766,0.360,0.624,0.587,�k��,6.1,��
2021/11/04,20:40,0.591,0.891,0.564,1.088,0.766,0.357,0.624,0.586,�k��,5.8,��
2021/11/04,20:50,0.593,0.892,0.563,1.089,0.768,0.359,0.623,0.586,�k��,5.2,��
2021/11/04,21:00,0.594,0.891,0.564,1.090,0.766,0.357,0.624,0.585,���k��,4.5,��
2021/11/04,21:10,0.590,0.891,0.565,1.089,0.766,0.358,0.625,0.585,�k��,4.0,��
2021/11/04,21:20,0.592,0.891,0.564,1.089,0.766,0.358,0.626,0.585,�k��,4.7,��
2021/11/04,21:30,0.591,0.892,0.563,1.086,0.765,0.358,0.624,0.587,�k��,4.6,��
2021/11/04,21:40,0.592,0.891,0.563,1.088,0.765,0.359,0.625,0.587,�k��,5.1,��
2021/11/04,21:50,0.592,0.892,0.564,1.089,0.766,0.359,0.624,0.585,�k��,4.4,��
2021/11/04,22:00,0.592,0.893,0.564,1.089,0.765,0.359,0.624,0.587,�k��,5.1,��
2021/11/04,22:10,0.592,0.891,0.563,1.089,0.766,0.358,0.625,0.586,�k��,5.2,��
2021/11/04,22:20,0.592,0.892,0.564,1.091,0.766,0.358,0.624,0.586,�k��,5.1,��
2021/11/04,22:30,0.593,0.890,0.563,1.091,0.765,0.359,0.625,0.585,�k��,4.7,��
2021/11/04,22:40,0.592,0.891,0.564,1.087,0.765,0.360,0.625,0.585,�k��,4.5,��
2021/11/04,22:50,0.593,0.892,0.562,1.088,0.765,0.359,0.626,0.585,���k��,3.2,��
2021/11/04,23:00,0.592,0.889,0.564,1.090,0.767,0.359,0.625,0.585,���k��,3.5,��
2021/11/04,23:10,0.591,0.890,0.563,1.087,0.766,0.357,0.625,0.584,���k��,3.4,��
2021/11/04,23:20,0.592,0.891,0.565,1.086,0.765,0.359,0.625,0.587,���k��,4.6,��
2021/11/04,23:30,0.592,0.891,0.564,1.090,0.767,0.358,0.626,0.586,�k��,3.6,��
2021/11/04,23:40,0.590,0.892,0.565,1.089,0.767,0.359,0.624,0.585,���k��,4.5,��
2021/11/04,23:50,0.591,0.892,0.564,1.090,0.766,0.358,0.624,0.586,���k��,4.8,��
